Preview of NWS' New Version of Forecast
This preview is not operational and should not be used for support decisions.
Latest weather observations around

Los Angeles, Los Angeles International Airport (KLAX)

Using English Units (Switch to International System of Units)
Date/ Time (PDT) Wind (mph) Vis. (mi) Weather Sky Cond. Temp (°F) Rel. Humidity Wind Chill (°F) Heat Index (°F) Pressure Precip. (in)
Air Dwpt 6 hour Altimeter (inHg) Sea level (inHg) 1 hr 3 hr 6 hr
Max Min
Mar 25 22:53 ESE 3 10 Mostly Clear FEW220 58 50     75%     30.06 30.06      
Mar 25 21:53 SW 8 10 Clear CLR 58 50     75%     30.07 30.06      
Mar 25 20:53 WSW 8 10 Clear CLR 59 47     64%     30.06 30.06      
Mar 25 19:53 WSW 9 10 Mostly Clear FEW250 59 45     60%     30.05 30.05      
Mar 25 18:53 WSW 11 10 Mostly Clear FEW200 60 44     55%     30.05 30.04      
Mar 25 17:53 WSW 10 10 Clear CLR 63 48     58%     30.05 30.05      
Mar 25 16:53 WSW 15 10 Clear CLR 63 49     60%     30.07 30.07      
Mar 25 15:53 W 18 10 Mostly Clear FEW015 FEW250 64 50     60%     30.08 30.08      
Mar 25 14:53 W 21 10 Mostly Clear and Windy FEW015 FEW250 64 51     63%     30.09 30.09      
Mar 25 13:53 W 20 10 Clear and Windy CLR 65 53     65%     30.1 30.1      
Mar 25 12:53 W 14 10 Clear CLR 67 53     61%     30.11 30.11      
Mar 25 11:53 WSW 8 10 Clear CLR 67 51     57%     30.12 30.12      
Mar 25 10:53 W 8 10 Clear CLR 64 51     63%     30.13 30.13      
Mar 25 09:53 W 9 10 Clear CLR 62 51     67%     30.15 30.15      
Mar 25 08:53 NW 6 10 Clear CLR 60 50     69%     30.14 30.14      
Mar 25 07:53 NE 3 10 Clear CLR 57 49     74%     30.12 30.11      
Mar 25 06:53 Calm 10 Mostly Clear FEW010 54 49     83%     30.11 30.1      
Mar 25 05:53 Calm 10 Mostly Clear FEW010 53 49     86%     30.11 30.1      
Mar 25 04:53 E 5 10 Clear   52 49     89%     30.11 30.1      
Mar 25 03:53 E 5 10 Mostly Clear FEW012 53 49     86%     30.12 30.11      
Mar 25 02:53 E 5 10 Mostly Clear FEW012 52 49     89%     30.13 30.12      
Mar 25 01:53 Calm 10 Mostly Clear FEW012 57 53     87%     30.14 30.14      
Mar 25 00:53 W 7 10 Mostly Clear FEW012 57 53     87%     30.16 30.15      
Mar 24 23:53 WSW 7 10 Mostly Clear FEW012 57 51     81%     30.16 30.15      
Mar 24 22:53 WSW 6 10 Clear CLR 57 52     83%     30.16 30.16      
Mar 24 21:53 W 6 10 Clear CLR 58 52     81%     30.17 30.16      
Mar 24 20:53 WSW 7 10 Clear CLR 58 52     81%     30.16 30.16      
Mar 24 19:53 WSW 11 10 Mostly Clear FEW250 59 52     78%     30.14 30.14      
Mar 24 18:53 W 11 10 Clear CLR 60 52     75%     30.13 30.13      
Mar 24 17:53 W 11 10 Clear CLR 62 52     70%     30.13 30.13      
Mar 24 16:53 W 13 10 Mostly Clear FEW020 FEW080 63 51     65%     30.13 30.13      
Mar 24 15:53 W 11 10 Mostly Clear FEW030 64 52     65%     30.15 30.14      
Mar 24 14:53 W 11 10 Mostly Clear FEW033 65 52     63%     30.16 30.15      
Mar 24 13:53 WSW 14 10 Mostly Clear FEW033 65 52     63%     30.17 30.17      
Mar 24 12:53 WSW 11 10 Mostly Clear FEW033 66 51     59%     30.18 30.18      
Mar 24 11:53 WSW 7 10 Partly Cloudy SCT032 64 51     63%     30.19 30.19      
Mar 24 10:53 WSW 3 10 Partly Cloudy SCT031 64 50     60%     30.2 30.19      
Mar 24 09:53 ESE 6 10 Mostly Cloudy SCT019 BKN220 61 52     72%     30.19 30.19      
Mar 24 08:53 E 5 8 Partly Cloudy FEW011 FEW019 SCT220 58 52     81%     30.19 30.19      
Mar 24 07:53 Calm 6 Fog/Mist FEW011 FEW017 57 53     87%     30.18 30.18      
Mar 24 06:53 Calm 7 Partly Cloudy FEW011 SCT017 54 51     90%     30.16 30.15      
Mar 24 05:53 NE 3 9 Partly Cloudy FEW010 SCT016 53 50     89%     30.14 30.13      
Mar 24 04:53 E 3 10 Clear CLR 53 50     89%     30.13 30.12      
Mar 24 03:53 Calm 10 Clear CLR 56 52     87%     30.13 30.13      
Mar 24 02:53 Calm 10 Partly Cloudy SCT015 56 53     90%     30.15 30.14      
Mar 24 01:53 NNW 6 10 Partly Cloudy SCT011 56 52     87%     30.14 30.14      
Mar 24 00:53 W 8 10 Mostly Clear FEW011 57 52     83%     30.14 30.14      
Mar 23 23:53 W 7 10 Mostly Clear FEW011 57 53     87%     30.13 30.13      
Mar 23 22:53 WSW 8 10 Partly Cloudy FEW011 SCT040 58 53     84%     30.14 30.13      
Mar 23 21:53 W 8 10 Partly Cloudy FEW011 SCT040 57 53     87%     30.14 30.13      
Mar 23 20:53 W 11 10 Partly Cloudy SCT012 SCT038 58 53     84%     30.14 30.14      
Mar 23 20:40 WSW 8 10 Partly Cloudy SCT012 SCT038 58 53     84%     30.14        
Mar 23 19:53 WSW 10 10 Mostly Cloudy BKN011 BKN050 59 54     83%     30.13 30.13      
Mar 23 18:53 W 14 10 Mostly Cloudy SCT011 BKN049 59 53     81%     30.13 30.12      
Mar 23 17:53 W 14 10 Mostly Cloudy FEW015 BKN050 BKN200 60 53     78%     30.12 30.12      
Mar 23 16:53 W 14 10 Partly Cloudy FEW015 SCT045 SCT200 62 52     70%     30.12 30.11      
Mar 23 15:53 W 14 10 Partly Cloudy FEW015 SCT045 SCT200 63 50     63%     30.13 30.13      
Mar 23 14:53 WSW 16 10 Mostly Cloudy FEW019 SCT036 BKN200 64 51     63%     30.14 30.14      
Mar 23 13:53 W 14 10 Mostly Cloudy FEW019 SCT036 SCT220 BKN300 63 51     65%     30.15 30.15      
Mar 23 12:53 WSW 9 10 Mostly Cloudy FEW027 SCT035 SCT180 BKN300 63 50     63%     30.17 30.17      
Mar 23 11:53 SW 9 10 Mostly Cloudy FEW027 SCT035 SCT180 BKN300 62 50     65%     30.17 30.17      
Mar 23 10:53 WSW 8 10 Mostly Cloudy SCT026 SCT032 BKN170 BKN280 61 50     67%     30.17 30.17      
Mar 23 10:37 WNW 5 10 Mostly Cloudy SCT026 BKN032 BKN170 BKN280 62 51     67%     30.17        
Mar 23 09:53 6 10 Cloudy BKN022 OVC170 58 49     72%     30.17 30.17      
Mar 23 08:53 Calm 10 Clear   58 49     72%     30.17 30.16      
Mar 23 07:53 5 10 Cloudy BKN019 BKN170 OVC230 57 49     74%     30.15 30.15      
Mar 23 06:53 SSE 6 10 Cloudy BKN019 BKN170 OVC230 57 49     74%     30.14 30.14      
Mar 23 05:53 Calm 10 Mostly Cloudy BKN018 57 50     77%     30.13 30.13      
Mar 23 04:53 SW 3 10 Mostly Cloudy BKN015 BKN170 57 51     81%     30.14 30.13      
Mar 23 03:53 WSW 6 10 Mostly Cloudy BKN015 BKN170 56 51     84%     30.14 30.14      
Mar 23 02:53 SW 6 10 Mostly Cloudy BKN016 BKN150 57 51     81%     30.15 30.14      
Mar 23 01:53 WSW 7 10 Mostly Cloudy BKN018 BKN150 56 51     84%     30.15 30.15      
Mar 23 00:53 WSW 9 10 Mostly Cloudy SCT017 BKN150 57 51     81%     30.16 30.16      
Mar 22 23:53 W 9 10 Mostly Cloudy FEW015 BKN150 57 51     81%     30.16 30.16      
Mar 22 22:53 W 8 10 Partly Cloudy FEW015 SCT150 57 51     81%     30.16 30.16      
May 15 08:53 SSW 8 8 Mostly Cloudy BKN021 62 52     70%     30.06 30.05      
May 14 11:53 WSW 17 8 Partly Cloudy FEW027 SCT140 SCT180 65 53     65%     30.01 30      
May 14 09:09 6 7 Mostly Cloudy SCT018 BKN140 63 53     70%     29.99        
May 11 17:53 ESE 7 10 Mostly Cloudy BKN025 BKN031 63 52     67%     29.82 29.81      
Jun 12 02:53 E 6 10 Mostly Clear FEW090 FEW220 57 51     81%     29.97 29.96      
Jun 10 23:53 SW 6 10 Clear   63 57     81%     29.87 29.86      
Jun 10 06:53 WSW 6 10 Cloudy BKN020 OVC026 62 58     86%     29.88 29.87      
Jun 10 05:53 WSW 3 10 Mostly Cloudy BKN023 62 57     84%     29.87 29.86      
Jun 09 15:53 WSW 14 10 Partly Cloudy FEW013 SCT100 69 60     73%     29.91 29.9      
Jun 09 12:53 WSW 14 9 Mostly Clear FEW017 FEW120 70 55     59%     29.96 29.95      
Jun 09 00:53 SSW 3 10 Mostly Clear FEW011 61 56     83%     29.94 29.93      
Jun 08 16:53 WSW 21 10 Clear and Windy   67 57     71%     29.95 29.95      
Jun 08 05:53 W 7 4 Clear   61 60     97%     29.99 29.98 0    
Jun 07 15:53 WSW 13 10 Mostly Clear FEW022 68 59     73%     29.94 29.93      
Jun 07 12:53 7 7 Cloudy OVC016 65 59     81%     29.98 29.98      
Jun 07 10:53 WSW 9 6 Haze SCT012 OVC014 63 59     87%     29.97 29.97     0
Jun 07 09:53 WSW 7 5 Fog/Mist BKN013 OVC018 63 59     87%     29.96 29.96